Wind_Speed
41 40 40 40 39 39 39 39 39 38 37 36 36 36 36 35 35 35 34 34 34 35 35 34 34 32 32 32 32 32 32 31 30 30 30 31 31 30 29 29 30 31 30 29 29 29 29 28 27 26 25 26 28 29 28 26 25 26 24 23 23 22 22 21 17 18 24 24 22 22 21 21 24 26 27 27 27 28 30 32 33 34 35 34 34
41 40 39 39 39 39 39 39 39 38 37 37 37 37 35 35 34 33 33 34 34 35 36 35 35 34 33 33 33 33 33 32 32 32 32 32 32 32 31 31 32 32 32 32 32 31 31 31 30 28 27 28 29 30 30 28 27 28 28 25 25 23 22 23 22 19 23 26 25 23 23 22 24 25 26 27 28 29 30 32 33 34 35 36 36
41 40 39 39 39 39 39 38 38 38 38 38 37 37 36 35 34 33 33 33 33 35 36 35 35 35 35 35 35 35 34 34 34 33 34 33 33 33 33 32 33 33 33 34 34 33 32 33 33 31 29 30 31 31 32 32 30 30 30 29 28 27 25 25 25 23 24 27 28 26 24 25 26 27 27 27 27 27 28 30 32 34 35 36 37
39 39 39 39 39 39 38 37 38 38 38 38 38 37 36 35 34 34 34 33 33 34 35 35 35 35 35 36 36 37 36 35 35 35 35 34 34 34 34 34 35 35 35 35 34 34 34 34 35 34 32 32 33 32 32 33 34 33 33 32 31 30 29 27 27 28 27 26 29 29 27 26 27 27 27 28 28 27 28 29 30 33 35 36 38
38 38 39 38 37 37 37 37 37 38 38 38 38 38 37 36 35 35 35 34 34 34 34 34 35 35 37 38 38 38 38 37 36 36 36 35 35 35 34 35 36 36 36 36 35 34 34 36 37 36 34 34 35 35 34 33 34 35 35 35 34 33 31 30 29 30 29 28 30 30 28 27 28 27 27 27 28 29 29 30 30 32 34 35 37
38 39 38 38 37 37 38 38 38 38 38 38 38 38 37 37 36 36 36 36 35 35 34 34 35 37 38 39 39 39 38 37 37 37 36 35 35 35 35 36 36 37 37 37 36 36 35 36 37 36 35 36 37 37 36 35 35 35 36 37 37 35 34 33 31 30 30 31 31 30 28 28 28 29 28 27 27 29 30 32 33 33 34 36 37
38 38 38 38 38 38 39 39 39 39 39 39 39 38 38 38 38 37 37 37 37 36 36 36 36 38 39 39 39 39 38 37 37 37 36 36 36 36 36 37 37 37 38 37 36 36 36 37 37 36 36 38 39 39 38 36 36 36 36 37 37 36 35 35 33 31 31 31 31 31 31 30 29 30 31 28 26 28 30 31 33 35 35 37 39
38 38 38 38 38 38 39 39 39 39 38 38 38 37 38 38 38 38 37 37 38 38 37 37 38 38 39 39 39 38 36 36 37 37 37 37 37 38 38 37 37 37 38 38 36 35 36 37 37 37 38 39 40 40 39 37 36 36 37 36 36 36 35 34 32 30 30 30 30 32 32 30 30 31 30 26 25 29 32 31 33 36 34 35 38
37 37 36 37 38 38 38 38 38 38 37 37 37 37 37 37 37 37 37 37 38 38 38 38 37 38 39 39 39 37 36 37 39 39 39 39 39 39 38 38 38 37 37 36 35 35 36 37 38 39 39 40 41 41 40 38 36 36 36 36 36 36 36 33 30 29 29 28 29 31 30 29 31 31 29 29 30 33 32 28 31 36 34 32 37
37 36 36 37 38 37 37 36 36 37 37 38 38 38 37 36 36 37 38 38 38 38 37 37 37 37 39 39 39 37 37 39 41 41 42 41 40 39 38 38 38 37 36 35 34 35 36 38 39 40 41 41 41 42 42 40 39 39 38 37 37 36 36 33 29 28 28 27 29 30 27 27 32 32 32 34 34 33 32 28 30 32 29 27 33
36 36 36 36 36 35 35 35 35 36 37 38 38 38 37 36 37 37 37 38 38 37 37 37 38 38 39 39 39 38 39 41 42 42 43 42 41 39 38 38 37 36 36 35 35 36 36 37 39 40 40 41 42 42 43 43 42 42 42 41 40 39 37 34 31 30 29 29 30 30 27 29 33 34 34 35 34 32 32 30 29 28 24 22 25
34 34 35 35 34 35 35 35 35 36 37 37 38 38 38 37 37 37 37 38 37 37 37 38 38 39 38 38 38 39 40 42 42 42 43 43 42 41 39 37 35 35 36 36 37 37 37 37 38 39 40 41 41 42 42 43 43 44 44 44 43 43 42 39 36 33 32 32 32 31 31 31 34 35 34 35 34 31 30 29 29 29 28 26 25
32 33 34 34 35 35 36 35 36 36 37 38 38 37 37 38 38 38 38 37 37 38 38 38 38 39 38 38 39 39 40 41 42 42 42 43 42 41 40 37 36 36 36 37 37 38 38 38 37 38 40 40 40 40 40 41 42 42 43 43 44 45 46 46 44 41 39 37 34 35 36 34 34 37 36 34 32 28 27 29 31 31 31 31 33
32 34 35 35 36 36 36 36 36 37 37 38 37 37 38 38 39 39 38 37 38 38 38 38 38 39 39 40 40 39 40 41 41 41 42 42 41 41 41 40 38 37 37 37 37 38 39 38 38 39 40 39 38 39 39 39 39 39 40 41 43 45 47 48 48 47 46 44 41 42 43 39 38 41 40 35 33 32 32 32 33 35 35 36 40
33 34 35 35 36 36 36 36 36 37 37 37 37 37 38 38 38 38 37 38 39 39 38 38 39 39 40 40 39 39 41 41 40 40 41 42 41 40 40 40 40 39 39 38 38 39 39 38 39 40 40 38 38 38 38 38 38 38 39 39 40 43 45 47 47 47 49 50 49 50 50 47 45 45 44 39 37 38 37 37 39 37 34 35 38
32 33 33 34 35 36 36 36 36 37 37 37 36 37 37 38 38 38 38 38 39 39 39 39 39 39 39 39 39 40 42 40 39 39 40 40 39 38 39 41 41 41 41 40 40 40 40 39 39 40 40 39 39 39 38 37 37 37 38 39 39 40 44 45 43 43 45 47 49 51 53 52 50 49 49 45 43 42 38 37 38 33 28 28 32
31 33 33 34 35 36 37 37 37 37 37 36 36 37 38 39 39 39 38 37 37 38 39 39 38 39 38 38 39 41 41 39 38 39 39 37 36 37 39 40 41 41 42 42 41 41 41 40 40 39 40 40 40 39 39 37 38 38 39 38 37 40 43 40 37 39 41 44 48 49 51 52 51 52 53 52 52 47 36 33 35 31 25 24 27
31 32 34 35 36 37 38 38 38 37 36 36 37 38 38 39 40 39 39 38 38 38 38 38 38 38 38 38 40 41 40 38 38 38 38 36 35 37 38 39 40 41 41 42 42 41 42 41 41 40 41 41 40 40 39 37 38 39 39 37 37 39 39 34 33 37 38 40 45 45 47 49 49 51 53 53 56 52 41 40 41 33 28 27 25
31 32 34 37 39 39 39 39 39 38 37 38 39 39 39 40 40 39 38 38 38 37 37 36 37 37 37 38 39 39 39 38 37 38 38 36 35 36 37 38 39 39 39 40 40 41 41 42 42 42 43 43 42 41 40 39 40 40 39 37 37 38 37 35 34 32 29 34 41 41 43 47 46 49 52 52 54 53 49 51 49 38 33 32 25
32 34 35 37 39 40 39 39 39 39 38 39 40 40 40 39 38 37 36 36 36 35 35 35 35 35 36 36 37 38 38 37 37 37 37 36 36 36 36 38 38 38 38 38 38 39 40 41 41 41 43 44 44 44 43 42 42 43 41 37 36 38 40 36 27 21 22 33 40 36 36 42 43 44 46 47 48 49 50 53 53 46 41 35 28
26 30 32 34 36 38 39 39 40 40 40 40 40 39 38 37 37 36 35 35 34 33 33 33 33 34 34 34 35 36 37 37 36 37 37 37 36 36 37 39 40 38 38 37 38 38 38 38 40 40 42 44 44 45 45 44 44 45 43 41 40 42 41 29 14 14 27 39 39 34 35 40 40 37 37 39 42 43 44 46 48 48 46 41 35
21 25 27 30 32 35 37 38 39 40 39 38 36 36 36 36 36 35 34 33 32 32 33 32 31 31 32 32 34 35 35 35 35 36 37 37 37 37 38 40 40 38 37 36 36 37 37 38 39 39 40 41 41 41 41 39 40 41 42 43 43 42 42 30 10 12 33 44 40 37 40 42 39 35 34 35 38 40 40 41 42 43 46 48 47
13 21 26 29 31 34 35 37 38 38 38 37 36 35 35 34 34 33 32 31 30 31 31 30 29 29 29 30 32 33 33 34 34 35 36 36 36 37 39 39 39 39 39 37 36 37 38 38 38 37 37 36 36 35 34 33 34 35 36 38 37 36 38 26 6 6 27 41 38 37 40 41 39 37 37 37 39 41 42 40 40 40 42 47 51
3 11 21 27 31 33 35 36 37 37 38 38 35 33 32 32 32 31 31 30 29 28 28 28 27 26 26 27 29 31 32 32 33 34 34 34 35 37 38 38 39 40 41 40 38 37 35 34 32 31 31 31 30 30 30 28 28 29 28 28 27 26 25 14 11 9 22 33 33 34 38 39 39 38 39 39 39 41 43 40 39 39 41 45 49
10 5 9 18 25 29 31 33 35 36 37 36 35 34 32 30 29 29 29 29 28 26 26 26 26 25 25 25 27 29 30 31 31 32 32 33 34 35 35 37 37 39 41 41 38 34 31 30 28 27 26 26 26 25 24 23 22 22 22 22 22 21 18 5 15 15 17 22 25 29 32 34 35 36 38 38 39 42 43 41 39 39 40 43 46
13 12 9 10 15 21 25 28 31 34 35 35 35 35 34 32 30 29 28 28 27 26 25 25 25 24 24 24 25 27 28 29 29 29 29 30 32 33 34 35 36 38 41 41 38 34 31 28 26 24 23 23 22 22 22 22 21 21 19 18 17 15 13 3 14 19 16 19 22 26 29 32 34 36 37 38 39 43 44 40 39 39 38 38 40
15 14 14 12 11 14 20 24 26 28 30 32 33 32 32 31 30 28 27 26 24 23 23 23 23 23 22 23 24 25 26 27 27 26 26 27 28 29 31 33 34 36 39 40 40 38 34 29 26 25 25 23 22 22 21 20 18 16 13 12 11 9 8 4 8 16 18 21 23 25 29 31 33 36 38 38 39 44 44 39 38 39 37 35 36
15 14 14 14 12 11 16 20 22 24 25 26 26 26 27 29 29 29 29 28 26 24 24 24 24 25 24 23 23 24 24 25 25 25 25 25 24 25 27 29 31 34 36 36 36 33 30 27 25 23 21 19 16 14 12 11 10 9 8 8 8 6 5 4 2 8 13 17 20 24 28 30 32 35 37 37 39 43 43 40 38 39 38 34 33
14 13 13 12 11 10 12 16 20 22 22 22 21 21 22 24 26 26 27 28 28 27 26 26 27 28 27 25 24 23 23 24 25 25 24 24 23 22 23 23 25 27 29 29 27 22 17 14 12 10 8 7 6 5 6 6 6 7 8 9 10 11 11 10 7 5 7 11 15 20 23 26 29 32 34 36 39 42 41 39 38 38 37 34 32
14 14 13 11 8 8 10 14 18 21 23 23 21 19 17 18 20 21 22 24 26 27 26 26 27 27 27 26 25 24 24 24 24 23 22 21 20 19 18 17 17 17 17 17 15 11 8 7 5 3 2 0 2 4 6 7 8 9 10 12 14 16 16 15 13 12 11 11 13 15 18 21 25 29 32 35 38 41 42 41 39 37 35 33 31
14 15 15 12 7 8 11 14 18 20 22 23 22 20 16 13 13 16 18 20 21 23 24 24 24 24 24 24 23 22 22 22 21 20 19 18 17 16 15 14 13 12 12 11 11 10 9 8 7 5 4 5 6 7 8 9 11 12 13 14 16 17 17 16 16 16 15 15 16 16 16 18 21 25 28 31 35 39 41 41 38 35 33 31 28
13 13 14 13 7 8 12 15 17 19 19 20 21 20 18 14 10 9 11 14 16 19 20 21 21 20 20 21 21 20 20 19 17 16 17 16 16 15 14 14 13 12 12 11 10 10 9 8 9 9 8 9 10 9 9 10 12 13 13 14 15 16 16 16 17 17 17 19 19 19 19 20 21 23 25 27 29 33 35 36 34 32 30 29 27
11 10 12 12 7 7 12 14 17 19 20 21 21 21 20 18 15 12 9 8 9 12 14 16 17 17 16 17 18 17 16 15 15 15 16 16 16 16 14 13 12 11 11 11 11 12 11 11 12 12 11 11 10 9 10 11 11 11 12 12 13 15 15 15 17 18 19 20 20 21 23 23 24 25 27 27 27 27 29 30 31 29 28 27 25
9 8 9 10 8 7 12 14 17 19 21 22 22 22 20 20 19 18 16 13 10 9 8 9 10 12 13 13 13 12 13 14 15 16 15 14 14 15 14 14 13 11 10 11 13 16 16 16 15 13 11 10 10 10 10 10 9 9 10 10 11 13 14 15 16 18 19 20 21 23 25 25 25 26 28 28 29 28 27 27 27 25 24 22 17
8 7 6 8 9 7 11 15 17 20 21 21 21 20 19 19 19 19 18 18 17 16 15 14 12 11 11 12 13 14 16 17 17 17 17 16 16 15 14 15 16 14 13 14 17 19 18 17 15 12 10 11 11 10 9 8 7 8 9 10 10 12 13 14 16 17 18 20 22 23 23 24 24 25 25 25 26 27 26 25 23 19 15 11 8
7 6 6 7 8 7 9 14 16 19 20 20 20 19 18 18 18 18 19 21 22 22 21 22 22 20 19 19 19 19 20 20 20 18 17 16 15 13 14 17 19 19 19 20 20 19 17 15 13 12 11 11 10 8 7 7 7 7 8 9 10 11 12 13 15 16 17 18 20 20 21 21 22 22 23 23 23 24 24 24 21 16 10 9 13
6 6 5 6 7 6 8 12 14 16 17 17 17 17 17 17 18 20 21 22 23 24 24 26 28 27 25 23 22 22 21 20 19 18 16 15 14 13 15 19 22 22 22 22 20 18 16 14 12 12 11 10 8 8 7 7 7 7 8 9 9 9 11 12 13 14 15 16 17 17 17 18 19 19 20 21 22 22 22 21 20 17 14 15 17
5 5 6 6 7 7 8 11 13 14 15 16 17 18 20 20 21 23 23 23 24 25 25 25 27 28 27 26 24 24 23 21 19 17 15 14 14 15 17 21 22 23 22 20 18 16 15 13 12 11 10 8 7 7 6 6 6 7 7 7 7 8 11 12 12 13 14 14 14 14 14 16 17 18 19 19 21 21 21 20 19 18 17 18 18
4 4 5 6 8 9 10 13 15 16 18 19 20 21 23 22 22 24 24 24 23 22 20 20 22 24 26 27 26 24 23 22 20 18 17 16 17 18 20 21 21 21 20 18 16 14 13 12 11 10 8 7 7 6 6 6 6 6 6 7 8 10 13 13 12 12 11 11 12 13 15 16 17 18 19 20 21 20 20 20 20 18 18 19 20
5 6 6 7 9 11 12 15 17 19 20 22 23 23 22 21 20 21 21 21 21 20 19 19 20 22 24 25 24 23 23 22 20 19 19 19 18 18 18 19 19 18 17 15 13 11 10 9 9 8 7 6 7 6 6 5 6 6 6 7 10 12 12 11 10 9 9 10 11 13 15 16 16 17 18 20 20 20 20 20 20 20 20 20 21
8 8 9 10 11 13 15 17 19 19 20 21 22 22 23 23 23 22 21 19 19 19 19 20 21 22 22 21 20 20 22 22 20 19 18 18 17 16 15 15 14 14 13 12 10 9 8 7 7 6 6 6 6 7 6 5 4 5 6 7 9 9 9 9 8 7 8 9 10 12 14 15 15 16 17 17 18 18 19 19 20 20 19 18 18
11 11 12 13 14 15 16 17 19 20 19 19 19 20 21 24 24 23 21 21 20 20 20 21 20 20 19 18 18 20 22 22 20 18 17 16 15 13 12 12 11 11 10 9 8 7 6 6 6 6 5 5 5 6 6 5 4 5 5 6 7 6 6 5 5 5 6 8 9 11 13 13 14 14 14 14 15 15 16 16 16 16 15 15 14
14 14 15 16 17 16 16 17 18 18 18 19 20 20 20 22 22 21 21 22 22 21 21 21 19 18 17 18 19 21 22 21 20 19 18 16 15 14 12 11 10 10 9 8 7 6 5 5 5 5 5 4 4 5 5 6 6 6 6 5 4 3 2 2 3 4 5 6 8 10 11 12 13 13 13 13 13 12 12 11 11 11 10 11 12
17 18 19 19 19 19 19 20 21 21 21 22 22 21 21 22 23 24 24 23 22 22 22 21 20 20 19 18 19 21 21 19 18 17 16 15 14 13 12 11 10 9 8 8 8 7 7 6 6 5 4 4 3 4 5 6 6 6 6 5 4 2 2 1 2 3 4 5 6 7 9 10 10 10 11 11 11 11 9 9 9 9 8 8 10
18 20 22 23 24 24 23 23 25 26 26 27 27 25 25 25 25 25 26 25 24 25 24 23 23 23 22 21 21 21 20 19 18 16 15 14 12 11 10 9 8 7 7 7 6 6 7 7 7 6 5 4 4 4 4 5 5 6 6 6 5 4 3 4 4 4 4 5 5 6 8 9 9 8 9 10 11 10 9 6 5 5 6 7 8
18 19 21 23 24 26 27 28 30 30 31 32 32 30 29 29 28 27 27 27 27 27 26 25 25 25 25 25 24 23 22 20 19 17 16 15 13 12 11 9 8 7 8 7 6 5 4 5 5 4 4 3 4 3 3 3 3 4 4 4 4 4 4 4 5 5 5 6 6 7 8 10 10 9 9 9 10 11 10 8 6 4 2 2 3
22 20 21 21 22 22 24 27 31 32 32 32 32 30 29 30 30 29 29 29 29 28 27 26 25 26 25 25 24 23 22 21 20 18 16 15 14 13 11 10 9 8 7 6 5 4 3 3 2 2 2 2 2 2 2 2 2 2 3 3 4 4 4 5 5 6 6 6 7 7 9 10 9 9 8 9 10 11 11 11 9 7 5 4 4
27 25 25 25 25 24 23 23 25 27 28 29 30 30 29 30 30 30 29 30 30 28 27 26 26 26 26 25 24 24 23 22 21 20 18 16 14 13 12 11 10 9 7 6 5 4 4 3 2 2 1 1 2 2 2 2 2 3 4 5 5 6 6 6 6 7 8 8 8 8 9 9 9 8 8 9 9 10 10 10 11 10 9 8 7
27 26 26 28 29 29 28 26 26 26 28 28 29 29 30 29 29 29 29 29 29 28 27 27 27 27 28 27 26 25 25 24 23 22 20 19 17 16 15 14 13 12 10 9 8 7 6 6 5 4 3 3 2 2 2 3 3 4 5 5 6 7 8 8 8 8 8 8 8 8 8 8 8 9 8 8 8 8 8 8 8 9 9 9 9
27 25 26 28 31 31 31 29 28 28 30 30 29 29 29 29 28 28 28 29 28 27 27 28 29 29 28 29 28 27 27 26 24 23 22 22 21 20 18 17 16 15 15 14 13 11 10 10 9 8 7 6 5 3 3 3 3 4 4 4 5 7 8 9 9 9 9 8 8 8 8 8 8 8 8 7 6 7 7 7 7 7 7 7 8
30 27 27 29 31 33 34 32 29 29 30 30 29 29 29 28 28 28 28 29 28 28 28 29 29 29 29 29 29 28 27 26 25 24 23 23 22 22 21 20 20 19 18 18 17 16 15 14 13 12 12 11 9 8 7 6 5 5 4 4 5 6 7 7 8 9 9 9 9 8 8 8 8 8 8 7 7 7 7 7 7 7 6 6 7
Wind_Direction
201 202 203 204 206 207 208 210 211 213 213 214 216 219 220 220 222 223 223 225 226 227 229 230 232 233 233 234 234 234 235 235 236 236 236 238 239 240 242 240 241 243 244 244 243 243 243 245 248 249 248 247 247 246 246 245 244 244 246 250 251 250 246 237 232 254 266 266 264 264 262 260 257 256 257 259 260 259 259 260 260 258 257 256 256
201 203 203 204 206 207 208 209 210 212 213 214 217 218 220 221 222 222 223 225 226 228 229 230 232 233 233 234 235 235 236 236 235 235 235 236 237 238 239 239 240 241 242 244 244 243 242 244 247 249 248 247 247 246 247 247 245 245 245 248 252 253 250 244 239 246 261 264 262 261 258 253 252 254 255 257 260 261 261 260 261 260 260 259 259
201 202 203 205 207 208 208 209 210 211 212 214 216 217 219 221 221 222 223 225 226 228 230 230 231 232 232 234 235 235 236 236 235 234 234 235 235 236 237 238 239 239 240 242 243 242 241 242 245 247 247 247 247 246 247 247 246 247 247 248 251 253 254 253 247 245 254 263 264 263 260 255 254 256 258 260 261 262 261 262 261 261 261 261 260
200 201 202 205 207 208 208 209 209 211 212 213 215 217 219 220 221 222 224 224 226 228 230 231 231 232 232 233 234 235 235 235 235 234 235 235 235 236 237 237 238 239 240 241 242 241 240 241 244 245 245 246 247 247 247 247 247 247 248 249 251 252 255 256 254 249 251 259 263 264 264 263 261 261 261 262 262 262 263 264 263 261 261 260 260
199 200 202 204 206 207 208 209 210 211 212 214 216 217 218 219 220 222 223 224 226 228 228 229 230 231 233 233 234 234 234 234 234 234 234 235 236 237 238 238 239 239 240 241 242 241 240 241 243 244 243 244 246 247 247 247 248 248 248 250 251 253 255 256 256 254 250 253 260 263 265 265 265 266 264 262 262 262 263 263 263 262 262 261 259
199 200 202 203 204 206 207 209 210 211 213 214 216 217 217 218 220 221 222 223 225 227 227 228 229 231 233 234 235 235 234 233 234 234 234 234 235 237 238 239 240 240 240 241 241 242 242 243 244 242 241 242 245 246 246 247 248 248 248 249 250 252 253 254 254 253 252 254 259 263 265 264 265 267 267 265 263 263 262 263 262 261 260 260 258
199 200 201 203 204 206 207 208 210 211 213 215 216 217 217 218 219 220 222 223 224 226 227 228 229 231 234 235 235 236 235 234 234 235 234 235 235 236 237 238 239 240 241 241 241 242 243 245 245 244 242 243 245 246 245 245 246 247 248 249 249 250 251 251 251 251 252 254 258 262 265 265 265 266 268 267 265 263 261 259 260 259 257 256 257
198 200 201 203 205 206 207 209 210 212 214 215 216 217 218 219 219 220 222 222 224 225 226 228 230 232 234 235 236 236 235 234 235 235 235 235 236 237 237 238 238 240 241 242 242 242 244 245 246 246 246 246 247 248 246 245 245 246 248 249 249 249 249 249 248 248 249 252 256 260 263 265 265 265 265 263 258 257 256 252 255 258 257 255 256
198 199 201 203 206 207 208 209 210 212 213 215 216 218 219 219 220 221 222 223 224 226 226 228 230 232 235 236 237 236 234 235 235 235 235 235 235 236 237 237 238 239 241 242 242 243 244 246 247 248 248 249 251 251 251 249 246 246 247 248 248 248 248 248 246 245 246 248 252 256 258 260 260 260 259 254 251 255 258 253 253 257 258 257 258
197 198 201 204 206 207 208 208 210 211 212 214 216 217 219 220 220 221 222 223 225 226 227 227 229 231 234 236 237 236 235 236 237 236 236 235 235 236 236 237 238 239 240 241 242 243 244 246 248 250 251 252 253 254 254 254 252 250 251 250 248 247 247 247 246 245 245 246 249 251 253 255 256 256 256 256 256 257 257 253 252 257 259 259 261
197 199 201 204 205 206 207 208 209 210 212 213 215 216 217 219 220 222 223 224 225 226 227 227 228 230 233 235 236 236 236 238 238 238 238 237 236 235 236 237 238 238 240 241 242 244 245 246 249 251 252 252 253 254 255 256 255 255 254 253 252 251 249 247 246 245 245 247 249 250 249 252 256 257 257 260 259 256 255 253 252 255 254 253 260
197 199 202 203 204 205 206 207 208 210 212 213 214 215 216 217 219 221 222 223 225 226 227 228 229 231 232 234 236 236 237 239 240 240 240 240 238 237 236 237 238 238 240 241 242 244 245 247 248 250 251 252 253 254 255 256 257 257 257 256 256 255 254 252 249 247 246 247 250 250 249 252 258 258 258 259 260 258 257 255 252 251 250 248 251
196 198 202 203 204 205 206 206 208 210 211 213 214 215 215 216 218 220 221 223 224 226 227 228 230 231 232 234 236 237 238 240 241 241 242 242 241 239 238 238 239 240 241 241 243 244 245 247 248 249 251 252 253 254 254 256 258 258 258 258 257 257 257 255 253 252 251 251 252 254 255 254 258 260 261 260 261 260 257 253 251 249 247 248 252
196 199 202 203 204 205 206 206 208 210 212 213 213 214 215 216 218 219 220 222 223 225 226 227 229 231 232 234 236 238 239 240 241 242 242 243 243 241 239 239 240 242 243 243 244 245 246 246 247 249 251 252 252 253 253 255 256 258 258 258 257 258 258 256 254 253 253 252 252 256 259 258 258 263 265 262 259 258 255 253 253 251 248 253 258
197 200 202 203 204 205 205 206 208 210 212 212 212 214 215 217 218 218 219 221 223 225 226 227 229 230 232 233 236 238 240 241 241 242 243 243 243 242 241 240 241 243 245 245 245 246 247 247 248 251 252 252 252 253 253 253 254 256 256 256 257 259 259 258 256 254 254 254 254 256 260 261 261 264 266 264 261 260 258 258 259 257 255 258 261
197 200 202 203 204 205 205 206 208 210 211 211 211 213 215 217 218 218 219 221 223 225 226 227 228 230 231 233 234 238 241 241 241 242 244 244 243 242 241 240 241 243 245 246 247 248 249 248 249 251 253 254 254 254 254 254 254 254 255 256 257 259 260 261 260 260 260 260 259 260 262 263 263 264 265 264 263 262 260 259 259 256 253 255 258
198 201 202 203 205 206 206 206 208 210 210 209 211 213 215 217 219 218 218 219 222 224 226 228 229 230 231 231 233 237 240 241 241 242 244 243 241 240 240 239 240 242 245 247 248 249 250 250 250 251 253 254 255 256 256 254 252 253 254 256 257 258 260 262 262 263 265 266 266 266 267 267 266 265 266 264 262 261 257 256 255 249 243 246 252
199 200 202 205 207 208 207 208 209 210 210 210 212 214 215 217 218 218 217 218 221 223 225 228 229 230 231 231 232 236 239 240 240 241 242 242 240 240 239 238 239 241 244 247 249 250 251 252 251 252 253 255 256 257 257 255 252 252 252 254 256 257 259 261 261 262 264 267 269 269 270 270 268 267 267 265 263 259 252 251 254 249 240 241 249
202 202 203 206 209 210 209 209 210 211 210 212 213 214 215 217 218 218 217 218 221 223 224 226 229 230 231 232 234 236 238 239 240 240 241 240 239 239 239 237 238 240 244 247 249 251 252 253 253 253 254 256 257 257 258 256 254 254 253 253 255 258 260 261 259 258 262 266 268 267 268 270 269 268 268 267 265 261 253 252 253 249 245 246 247
208 208 207 207 209 211 211 211 211 212 212 214 215 216 216 217 218 218 218 219 221 223 223 225 228 231 232 233 235 236 237 238 239 240 241 239 238 238 237 235 237 239 242 245 248 250 252 253 254 255 256 258 258 258 258 256 255 257 255 252 253 259 265 264 257 253 261 267 267 267 269 271 270 267 267 268 267 263 258 255 253 248 248 249 243
217 214 212 210 209 210 211 212 213 214 215 216 216 217 217 217 217 217 217 218 220 221 223 224 227 230 232 232 234 236 236 237 238 239 240 239 239 238 236 235 237 239 241 243 245 248 251 253 255 256 258 260 260 260 260 258 258 259 257 255 259 263 267 269 258 251 267 271 271 270 269 269 269 267 268 268 268 266 263 259 255 250 247 246 242
225 223 219 215 212 211 212 213 214 216 217 217 216 216 217 217 218 217 216 217 218 220 222 224 225 229 231 232 234 236 237 237 237 238 239 239 240 239 239 239 240 239 240 242 244 247 251 253 257 259 262 264 265 266 266 265 264 264 263 266 268 266 268 270 257 252 269 271 271 271 271 271 272 273 273 271 270 270 268 263 259 254 249 246 243
227 225 223 219 216 214 213 214 214 215 218 218 217 217 217 216 217 217 216 216 217 219 222 223 224 227 230 231 234 236 237 238 238 238 239 239 240 241 242 244 245 243 242 242 245 249 253 256 259 262 264 266 268 270 272 272 272 273 275 278 278 276 276 271 207 208 269 270 268 270 272 274 276 276 275 273 272 273 272 268 264 260 254 250 248
326 231 224 222 220 217 216 215 214 214 216 217 217 217 216 215 215 215 215 215 215 217 220 221 222 224 227 230 232 234 236 238 239 239 240 239 240 241 243 245 246 245 244 245 247 250 253 256 258 260 263 265 268 271 274 275 278 280 283 287 288 292 292 270 172 192 267 268 266 269 270 273 276 276 277 279 279 279 278 273 270 265 259 255 252
8 331 244 231 226 221 217 215 214 214 214 214 215 216 215 214 213 213 213 213 213 215 217 219 219 221 224 227 230 232 235 237 238 239 240 241 242 242 243 245 246 245 245 245 246 248 250 254 256 259 263 266 268 271 275 278 283 285 289 294 297 304 314 276 181 202 255 265 265 271 274 278 282 283 285 286 286 285 283 279 275 271 266 263 259
359 351 326 275 245 230 222 217 215 214 213 212 213 215 214 213 212 212 211 211 212 214 215 216 218 219 222 225 228 230 233 235 237 238 239 239 241 242 243 245 246 245 245 244 245 246 247 250 254 257 261 265 268 275 279 284 290 293 297 304 307 314 332 326 187 202 241 266 270 275 282 288 290 290 289 289 286 285 284 282 281 277 273 269 265
357 349 337 319 288 247 229 222 216 213 210 210 211 213 212 212 211 211 210 209 210 212 213 214 215 216 220 222 224 228 232 233 233 234 235 236 238 240 241 243 244 244 245 246 246 246 246 249 254 258 264 270 274 279 283 287 294 300 303 312 318 324 342 339 207 216 245 269 277 282 288 291 291 291 291 290 288 287 287 286 284 281 278 275 270
360 352 338 326 309 266 237 225 217 211 207 207 207 208 209 210 211 212 211 209 208 209 210 212 214 215 217 218 220 224 228 230 230 231 233 235 237 237 239 241 242 243 245 247 248 250 251 255 259 263 268 273 275 279 285 291 301 313 321 331 341 349 359 3 270 237 252 267 278 284 288 289 290 292 293 293 291 290 291 290 288 285 285 281 272
359 356 344 328 310 276 242 223 214 206 200 198 198 200 204 207 210 214 215 214 213 213 213 214 217 219 219 219 218 219 223 229 234 236 236 237 238 239 240 243 244 246 247 248 249 251 250 249 250 252 257 266 277 298 319 326 336 351 1 7 11 11 12 16 15 338 290 281 282 286 292 295 296 297 298 298 295 294 294 293 291 290 289 284 277
0 357 351 336 304 262 231 214 206 199 193 190 187 185 190 199 205 209 212 214 216 218 219 221 224 225 224 222 222 224 230 237 241 238 234 233 233 235 238 240 241 241 239 236 229 218 200 183 175 179 187 20 12 16 16 12 15 21 19 16 16 14 12 12 8 355 339 323 309 304 304 303 301 302 301 300 299 299 299 297 294 291 289 286 283
2 356 354 346 307 242 216 203 196 193 189 186 182 176 171 177 191 200 205 210 214 217 220 224 227 229 229 228 227 228 232 239 241 236 229 225 223 222 220 217 211 204 199 191 177 166 161 150 131 115 104 89 71 58 49 36 29 25 19 15 16 14 11 7 2 357 353 346 338 331 323 314 308 306 304 302 301 302 303 303 299 292 286 281 280
360 353 351 348 316 238 213 199 191 187 182 179 178 174 166 158 155 172 195 206 212 216 219 222 224 227 230 233 233 232 231 231 229 221 213 206 202 199 195 190 184 176 174 171 157 145 144 136 121 111 104 94 81 68 56 45 34 25 18 14 13 14 12 10 7 6 4 358 352 347 342 336 329 323 316 312 309 306 305 305 303 296 288 282 277
350 345 344 343 321 239 211 198 189 185 181 178 178 177 173 167 155 141 145 170 192 203 210 215 219 222 222 224 231 233 226 214 201 191 187 185 184 181 175 168 163 162 168 168 151 135 131 126 117 110 102 91 81 71 60 47 34 26 23 19 16 17 19 19 17 14 11 6 1 356 352 348 344 339 334 329 325 320 315 312 308 301 293 285 279
336 334 332 333 319 253 215 203 194 189 186 184 182 181 180 178 169 153 140 133 131 139 154 173 194 206 205 205 211 210 196 183 174 169 166 164 162 161 157 149 144 149 161 161 146 135 129 122 114 107 99 90 82 71 60 47 33 30 33 31 28 27 27 25 20 16 12 10 7 4 0 357 354 349 344 340 338 336 332 326 321 313 303 297 298
323 320 316 316 312 274 226 210 200 193 189 186 184 183 180 176 169 160 149 137 122 112 112 120 133 151 161 161 162 163 159 154 151 149 147 144 143 146 146 139 134 136 141 139 134 129 123 116 110 103 97 93 84 69 59 53 46 44 43 41 40 37 31 24 20 16 13 13 11 7 6 5 3 358 353 348 347 348 346 341 336 329 323 326 352
308 311 310 308 306 280 235 216 205 197 191 186 183 180 173 166 159 150 143 136 127 118 115 117 120 125 130 134 137 140 140 140 140 141 143 145 148 154 151 140 132 130 129 127 125 121 114 109 106 103 100 96 85 71 66 69 67 63 58 51 46 40 30 22 17 14 16 17 15 12 12 12 10 7 3 359 358 359 360 359 356 355 12 53 72
293 295 297 297 294 271 230 211 203 197 189 180 173 166 157 150 145 138 132 129 126 123 122 123 125 126 128 131 136 139 139 141 143 145 147 151 158 161 153 141 134 131 128 126 124 118 110 104 104 106 105 99 86 77 78 82 81 77 67 58 52 41 27 18 14 14 17 19 19 19 20 19 17 15 13 9 10 11 14 17 18 19 35 60 72
280 276 275 272 264 242 213 196 189 183 174 163 156 151 144 140 138 134 130 128 129 130 132 135 136 135 134 136 140 142 142 142 141 140 140 145 148 146 141 137 134 132 130 128 123 116 108 104 104 107 106 96 83 79 84 85 80 75 69 62 51 29 15 12 17 23 26 26 25 24 25 23 23 25 26 24 23 25 28 33 35 35 40 53 62
256 245 242 239 230 217 199 181 171 165 159 153 150 147 143 140 139 135 133 131 131 131 131 132 132 133 135 138 140 141 139 135 132 130 129 131 134 135 134 134 133 131 130 129 123 114 107 103 103 104 100 87 79 83 89 84 71 66 65 54 34 17 12 18 28 34 34 32 29 27 30 31 31 35 38 37 36 39 43 45 45 45 44 49 58
225 208 209 211 203 193 182 169 162 158 153 150 148 144 137 130 127 125 125 126 126 126 127 127 128 132 138 142 144 143 137 130 128 129 128 128 130 132 132 132 131 130 131 132 126 117 108 105 106 107 99 85 76 77 82 80 71 64 54 35 23 18 22 32 41 43 38 33 31 33 37 39 41 44 47 48 49 51 53 51 52 54 55 58 65
201 187 184 183 176 169 164 157 152 149 147 143 140 136 131 129 129 128 128 127 127 128 130 131 133 137 142 143 144 139 131 125 127 131 131 131 132 130 127 125 125 126 129 130 125 116 109 108 112 114 106 89 76 72 73 74 66 50 32 24 24 29 38 47 50 47 40 36 38 41 42 44 47 48 50 55 62 66 66 63 65 69 70 71 75
183 169 164 162 157 152 150 148 144 144 144 140 135 132 132 133 136 138 136 134 134 134 133 133 137 142 145 144 137 126 118 117 120 122 125 128 128 123 118 114 112 114 117 117 113 111 109 107 108 110 106 91 74 67 63 60 56 46 37 35 36 40 50 57 51 42 39 39 40 42 42 45 48 48 50 59 68 71 73 76 80 83 85 87 91
167 155 149 149 146 142 142 140 138 138 139 136 134 135 134 131 132 133 132 130 131 133 131 130 134 138 139 138 132 122 115 113 112 110 111 113 112 109 107 103 101 101 100 98 95 95 98 99 98 96 95 86 74 66 58 53 55 54 46 42 41 40 49 55 45 41 41 38 38 42 43 43 45 46 47 51 52 53 60 72 78 80 84 90 97
152 144 138 135 132 130 130 129 126 124 125 125 125 125 124 121 120 121 120 119 120 121 120 120 122 122 123 126 126 119 114 113 111 109 109 110 109 109 107 102 101 102 99 94 89 83 80 79 76 73 76 73 63 57 52 47 47 47 39 32 26 353 285 297 358 27 36 30 29 34 33 29 30 34 33 26 21 23 36 54 62 67 77 88 92
133 130 128 126 122 119 118 118 116 115 116 116 114 112 112 111 110 111 112 110 110 110 110 109 110 110 110 112 113 111 110 110 108 107 107 109 112 115 116 114 114 114 111 109 104 92 80 74 68 67 70 68 58 53 48 41 37 33 27 20 11 353 323 308 319 341 1 6 5 9 11 8 5 5 7 5 4 5 11 19 31 51 72 84 87
114 115 116 116 117 117 117 116 115 112 111 110 109 106 105 104 103 103 104 105 104 103 102 101 102 102 102 104 105 106 107 107 105 104 104 106 108 113 119 123 123 120 118 119 118 104 86 75 70 73 78 70 58 54 48 40 34 23 11 360 351 343 335 329 328 331 340 347 348 349 351 350 347 345 349 354 356 357 357 357 357 356 1 36 74
101 98 101 101 102 105 109 111 112 110 107 106 105 102 100 100 100 99 98 99 100 99 97 96 97 97 96 97 99 101 102 102 101 101 103 106 108 113 120 123 122 117 115 117 115 106 91 73 58 65 74 56 38 28 23 19 4 335 321 315 315 318 320 323 326 322 318 323 328 331 334 337 338 341 346 350 351 349 348 348 347 343 330 311 294
91 90 91 93 91 90 89 91 96 98 98 99 99 98 97 97 96 95 94 94 95 95 93 92 92 92 90 90 93 96 98 97 95 93 93 94 98 103 108 110 109 106 104 106 106 100 92 77 57 50 57 39 15 8 3 346 315 296 287 285 290 299 304 306 309 308 304 306 311 316 323 329 333 336 339 342 345 346 346 343 341 340 337 327 311
75 81 86 88 88 87 85 84 84 86 89 90 91 92 92 91 91 91 91 91 90 89 89 88 88 88 88 89 90 92 93 91 88 85 83 83 85 90 93 95 96 94 92 92 90 86 84 81 72 69 72 67 47 22 358 336 317 305 296 288 287 292 294 296 296 296 296 300 304 307 313 320 326 328 329 329 332 336 340 342 341 339 337 334 329
59 64 73 79 83 83 83 82 82 83 86 87 86 86 86 87 86 86 87 87 86 85 85 85 85 85 86 87 88 87 87 85 84 83 82 80 79 80 82 84 85 84 82 81 80 79 78 76 71 71 72 70 67 61 39 9 347 331 320 313 307 303 301 297 295 292 291 294 298 301 304 307 312 317 321 323 327 329 331 335 339 338 334 333 332
64 60 61 68 75 79 80 79 77 77 81 83 83 83 83 83 82 82 83 83 83 83 83 84 84 84 84 84 85 85 84 82 81 80 80 79 78 76 75 75 76 77 76 75 73 72 70 68 65 64 62 59 59 60 56 46 32 15 357 338 321 312 308 305 303 299 296 294 292 292 295 297 297 299 303 307 313 316 320 326 330 328 325 327 327
Height
763 766 769 772 776 778 781 784 788 791 793 796 798 800 802 804 806 808 810 813 814 816 817 819 820 822 824 825 826 827 828 829 831 832 833 834 834 836 837 837 838 838 839 840 841 842 842 843 843 843 845 845 845 846 846 847 848 849 850 850 851 852 852 853 852 849 846 847 848 848 849 849 849 849 849 849 849 850 850 850 850 850 850 850 851
760 763 767 770 773 775 779 782 785 788 791 793 795 797 800 801 804 806 808 810 812 813 815 816 818 820 821 822 823 824 825 826 828 829 830 831 832 833 834 835 835 836 837 837 838 839 840 841 841 841 843 843 843 843 844 845 846 847 848 849 849 850 851 851 851 849 845 844 845 846 847 847 846 846 847 847 847 848 848 848 848 848 847 847 847
757 761 764 767 770 773 776 779 782 785 787 790 792 794 797 799 802 804 806 808 809 811 812 814 816 817 818 819 820 821 823 824 825 826 827 828 829 830 831 832 832 833 834 834 835 837 838 838 838 839 840 840 840 841 842 843 844 845 846 847 847 848 849 849 849 847 844 843 843 843 844 844 844 844 845 845 846 846 845 845 845 845 845 845 844
754 758 761 764 767 771 774 776 779 782 784 787 789 792 794 796 799 801 803 805 807 808 810 812 813 814 815 816 817 818 819 820 822 823 823 825 826 827 828 829 829 830 830 831 832 834 835 835 835 836 838 838 837 838 839 840 842 843 843 844 845 845 846 847 846 845 844 842 840 841 842 842 842 842 843 843 843 843 842 842 842 842 841 841 841
751 755 758 761 765 768 771 774 776 779 781 784 786 789 791 793 796 798 800 802 804 806 807 809 810 811 812 812 813 814 816 817 819 819 821 822 823 824 825 826 826 827 828 829 830 831 832 832 832 834 835 835 834 835 836 838 839 840 841 841 842 842 843 843 843 843 842 840 838 839 840 840 840 840 841 841 841 841 840 839 838 838 837 837 837
748 751 754 758 761 764 767 770 772 775 778 780 783 785 788 790 792 794 796 798 800 802 804 805 806 807 808 809 810 811 813 815 816 817 818 820 821 822 822 823 823 824 825 826 827 828 829 829 830 831 832 832 831 832 833 835 836 837 838 838 839 840 840 840 840 840 840 839 837 837 837 838 838 837 838 838 838 837 837 835 834 834 833 833 832
744 747 750 753 756 759 762 765 768 772 774 777 780 782 785 787 788 790 792 794 796 798 800 801 802 803 804 805 807 808 810 812 813 814 816 817 818 818 819 820 820 821 821 822 824 825 826 826 827 828 829 828 828 829 830 832 833 834 834 835 836 836 836 836 837 838 838 837 836 835 834 834 835 834 834 835 835 834 833 831 829 828 829 828 827
740 743 746 749 752 755 758 762 765 768 771 774 777 779 781 783 785 787 789 791 792 794 796 797 799 800 801 802 804 805 808 809 810 811 812 813 814 815 815 816 817 818 818 819 821 822 823 823 824 824 825 825 825 826 827 829 830 831 832 833 833 832 832 832 834 835 835 834 834 832 831 831 831 830 830 831 830 828 827 827 825 823 824 824 823
735 739 743 745 748 751 755 759 761 765 768 771 774 776 778 781 783 784 786 787 789 790 792 794 796 797 798 799 800 803 805 805 806 807 808 809 810 811 812 813 814 815 816 817 818 819 820 820 820 821 821 821 822 823 824 826 828 828 829 830 830 829 828 829 831 832 832 831 830 829 828 827 826 825 825 824 823 822 823 824 822 819 821 821 819
732 735 739 741 745 749 752 756 759 762 765 767 770 772 775 778 780 781 783 784 785 787 789 791 792 793 794 795 797 799 800 800 801 802 804 805 807 808 809 810 811 812 813 814 815 816 816 817 816 817 817 818 819 820 821 823 824 824 825 826 826 826 826 827 828 829 829 827 825 825 824 822 820 821 819 818 819 819 820 820 818 817 820 819 815
728 731 734 738 742 746 749 752 755 758 761 763 765 768 771 774 776 778 779 781 782 784 786 787 788 789 790 792 793 795 795 796 797 798 800 801 803 805 806 807 808 809 810 811 812 812 812 813 813 813 814 814 815 816 817 819 819 820 821 822 822 822 822 824 825 825 825 823 820 820 819 817 815 816 816 815 816 816 816 817 817 817 818 816 812
725 729 732 736 739 742 746 749 752 754 757 759 762 764 767 769 771 774 775 777 779 780 782 783 784 785 787 788 789 790 791 792 793 795 796 798 800 802 803 804 805 806 807 807 808 808 809 809 810 810 810 810 811 812 813 814 815 816 817 818 819 819 819 820 820 821 820 818 816 815 814 813 812 812 813 813 813 814 814 815 815 814 814 813 809
723 726 729 733 735 738 742 745 747 750 752 755 758 760 762 764 766 769 771 773 775 776 777 778 780 781 783 784 785 786 787 788 790 792 793 794 797 799 801 802 803 803 803 804 804 805 805 806 806 805 805 806 808 809 810 810 811 812 813 814 814 814 814 814 815 816 815 814 812 810 810 811 810 808 810 811 811 812 812 811 811 810 809 807 804
719 722 725 728 731 734 738 740 743 746 748 751 754 756 758 759 761 764 766 769 770 770 772 774 775 777 778 779 780 782 783 784 786 788 790 791 794 796 798 799 799 800 800 800 801 801 801 801 802 801 801 803 804 805 806 807 808 808 808 809 808 808 808 807 809 811 811 810 809 806 805 807 806 804 806 808 808 807 807 806 805 804 803 801 799
715 718 721 724 727 730 734 737 739 742 744 747 749 751 753 755 757 760 762 763 764 765 767 769 770 772 773 775 776 777 778 780 782 784 785 787 791 793 795 796 796 796 796 796 797 796 797 798 798 797 798 799 800 801 802 804 804 804 803 803 803 802 801 801 803 805 805 804 804 802 800 802 802 801 802 803 802 801 801 801 799 798 799 798 795
712 715 717 720 724 727 730 733 735 737 740 742 744 747 748 750 753 755 757 758 759 761 762 763 765 766 768 771 772 772 772 776 779 780 781 784 787 789 791 792 792 792 792 792 792 792 793 794 793 793 794 794 796 797 799 800 800 800 799 798 799 798 794 795 798 800 801 801 800 798 796 796 798 798 797 798 796 795 797 796 795 796 797 795 790
708 711 714 717 720 723 725 728 730 732 735 737 740 742 743 745 748 750 752 753 754 756 757 758 760 762 764 766 767 767 768 771 774 775 777 781 783 785 786 787 787 787 787 787 788 788 788 789 789 790 790 790 791 793 795 796 796 795 794 794 794 792 789 792 795 795 797 796 793 791 790 790 792 792 791 791 790 791 794 792 788 791 793 789 783
704 707 710 713 716 718 720 723 725 727 730 732 734 736 738 740 742 744 746 748 749 750 752 754 755 757 759 760 762 762 764 767 770 771 773 776 779 780 782 782 782 782 782 783 783 783 783 784 785 786 785 785 787 789 790 792 791 790 790 790 788 786 786 789 791 789 791 790 787 786 785 785 786 785 783 782 782 786 789 785 781 785 785 780 777
700 703 706 709 711 713 715 718 720 722 725 727 729 731 733 735 737 739 741 742 744 746 748 750 751 752 754 756 758 759 761 763 765 767 769 772 774 776 777 778 777 778 778 778 779 779 779 779 780 781 780 781 783 784 786 787 786 785 786 785 783 781 782 785 784 785 789 788 782 781 781 780 779 778 775 774 775 779 781 776 775 778 777 773 776
697 700 702 704 707 709 711 713 715 718 720 722 724 726 728 730 733 735 737 738 740 742 744 746 747 748 751 752 754 755 757 759 761 762 765 767 769 771 773 772 772 773 774 774 774 774 774 774 775 776 776 777 778 779 781 782 781 780 781 780 779 777 778 780 780 785 789 783 775 776 777 774 773 771 769 769 770 771 771 768 769 771 771 770 772
696 698 699 701 703 705 707 709 711 713 715 717 720 722 724 726 729 730 732 734 736 738 740 742 744 745 747 749 750 751 753 755 756 758 761 763 765 767 767 766 767 769 769 770 770 769 770 770 771 771 772 772 772 774 775 776 777 777 776 776 775 774 776 778 778 783 785 777 771 773 773 768 766 766 766 765 764 763 762 761 761 763 764 764 764
694 696 697 699 700 702 704 706 708 710 712 714 717 719 721 723 724 726 728 731 733 735 736 738 740 742 744 745 746 747 749 751 752 754 756 758 760 762 761 761 763 765 765 765 765 765 766 766 766 767 768 768 768 770 771 773 774 774 772 772 772 772 774 774 775 780 781 772 767 769 765 761 761 762 762 761 759 757 756 755 754 754 754 753 753
691 692 694 695 697 698 700 702 704 707 709 711 713 714 716 719 721 723 725 727 729 731 733 735 737 739 740 742 743 744 746 747 749 750 752 754 756 757 757 758 760 761 761 760 761 762 762 763 764 764 765 766 766 768 769 770 771 770 769 769 769 769 770 770 772 778 776 767 763 764 760 757 757 756 755 754 753 751 749 747 747 747 745 743 741
689 690 691 692 693 694 696 698 700 702 705 707 709 711 713 715 717 719 722 724 726 728 730 732 734 735 737 738 739 741 742 743 745 746 748 750 751 752 754 755 756 757 757 756 758 759 760 761 762 763 763 764 765 765 766 767 767 767 767 767 766 765 765 766 769 772 768 761 759 760 756 754 753 750 748 748 747 744 741 741 741 740 737 734 731
688 689 689 690 691 691 693 694 696 698 700 703 705 707 709 712 714 716 718 720 722 724 726 729 730 732 733 735 736 737 739 740 741 743 744 746 747 749 750 751 752 753 753 754 756 757 758 759 760 760 761 762 762 763 763 764 764 764 764 764 763 762 762 762 764 765 761 758 757 755 752 750 748 746 745 744 742 738 735 734 733 732 730 727 724
687 687 687 688 689 690 691 692 692 694 696 698 700 702 705 708 710 712 714 716 719 721 723 725 727 728 730 731 732 734 735 737 738 739 741 743 744 745 747 748 749 750 750 751 753 755 755 756 757 758 759 760 760 761 761 761 762 762 761 761 761 760 760 760 761 761 758 756 754 752 749 747 746 743 742 741 738 732 729 728 726 724 723 722 719
686 686 686 686 687 688 689 690 691 692 694 695 697 699 702 704 706 709 711 713 716 718 720 722 724 725 727 728 730 731 732 734 735 736 738 740 741 743 744 745 746 747 747 748 750 751 753 754 755 756 757 757 758 759 759 759 759 759 759 759 758 759 759 759 759 759 757 754 753 751 748 746 743 740 738 736 732 727 725 724 722 718 717 717 714
686 686 686 686 686 686 687 688 690 691 693 694 696 698 700 702 703 705 707 709 712 714 716 718 719 721 723 725 727 728 729 730 732 733 735 737 738 739 740 741 742 743 744 745 747 749 751 752 753 754 755 755 756 756 756 757 757 757 757 757 756 757 757 757 757 757 756 755 753 750 747 744 741 738 735 733 729 724 722 721 719 714 713 713 709
686 686 686 686 685 685 686 687 689 690 691 693 694 696 698 700 701 703 704 706 708 710 712 714 716 717 720 721 723 725 726 727 728 730 732 734 735 736 737 738 739 741 742 744 745 747 749 750 751 752 753 753 754 754 754 754 755 755 755 754 754 754 754 754 754 754 754 753 752 749 746 744 740 737 734 731 726 722 719 718 716 713 710 708 704
685 686 686 686 685 685 685 686 687 688 689 691 692 694 696 698 700 702 703 705 707 708 710 712 713 715 717 719 721 722 723 724 726 728 729 731 733 734 735 737 738 739 740 742 744 746 747 748 749 750 751 751 752 752 752 752 752 753 753 753 752 752 751 751 751 751 751 751 750 748 746 743 740 736 733 730 725 719 716 714 713 710 708 705 700
685 685 685 685 685 685 685 686 686 687 688 690 691 693 695 697 699 700 702 704 706 707 709 711 712 714 716 717 719 720 722 723 724 726 728 729 731 733 734 735 736 737 739 741 742 744 746 747 748 749 749 750 751 751 751 751 751 751 751 751 750 750 750 749 749 748 748 747 746 745 744 742 740 736 733 729 724 718 713 710 708 706 703 701 697
685 685 686 686 686 685 685 685 686 687 689 690 691 693 694 696 698 700 702 703 704 706 708 709 711 713 715 716 718 719 720 722 723 725 726 728 730 731 733 734 736 737 739 740 742 744 745 746 747 748 749 749 750 751 751 751 751 750 750 750 750 750 749 749 748 746 745 744 743 742 741 740 737 734 730 727 723 718 712 708 705 702 699 696 693
685 685 685 686 686 686 686 686 686 687 688 689 691 692 693 695 697 699 701 702 704 705 707 708 710 712 713 715 717 718 719 721 723 725 726 728 729 731 732 734 736 737 739 740 741 743 745 746 747 748 749 749 750 750 750 750 750 750 750 750 750 749 749 748 747 745 744 743 742 741 739 737 734 731 727 723 720 716 712 707 703 699 695 692 689
685 685 685 686 686 686 686 686 687 687 688 689 690 691 692 693 695 697 699 701 703 705 706 707 709 711 712 714 717 718 720 721 723 725 727 729 730 732 733 734 736 738 739 740 741 743 744 746 747 748 749 749 749 750 750 750 750 750 751 751 750 749 748 747 746 744 743 742 741 740 738 735 732 729 725 721 717 714 710 706 702 698 694 690 687
685 685 685 685 685 686 686 687 687 687 688 689 690 691 692 694 695 696 698 700 702 705 707 708 709 711 713 715 717 720 721 723 725 727 728 730 731 733 734 735 737 738 740 741 742 743 745 746 747 748 748 749 749 749 750 750 750 750 750 750 749 748 747 747 745 744 743 742 740 739 737 734 732 729 726 723 719 715 711 707 703 699 696 692 688
685 685 685 685 685 685 686 686 687 687 688 689 690 691 693 694 696 697 698 700 702 705 707 709 710 712 715 717 719 721 723 724 726 728 729 731 732 734 735 736 737 739 740 742 743 744 745 746 747 747 748 749 749 750 750 750 750 750 750 749 748 748 747 746 745 744 743 742 741 739 737 735 732 730 727 725 722 718 714 710 706 703 700 696 691
684 684 684 685 685 685 685 686 687 688 689 690 691 692 694 695 697 698 700 702 703 705 708 709 710 712 716 718 720 721 723 725 727 728 730 732 733 734 735 736 737 739 741 743 744 745 746 747 747 748 748 749 750 750 750 750 750 750 749 749 748 748 747 746 745 744 744 743 742 741 738 736 734 731 729 726 724 720 717 713 711 709 706 702 697
684 684 684 684 684 684 684 685 686 688 689 690 691 693 694 696 697 698 700 703 705 706 707 707 708 709 713 716 719 721 723 724 727 729 731 732 734 735 736 737 739 741 742 744 745 746 746 747 748 748 749 749 750 750 750 750 749 749 749 749 749 748 747 746 745 745 744 744 743 742 740 737 735 733 731 728 725 723 720 717 715 714 712 707 703
684 683 683 684 684 684 684 684 686 688 689 690 691 692 693 695 697 698 700 702 705 708 709 710 710 711 713 716 719 721 723 724 727 729 731 733 735 736 737 739 741 742 743 744 746 747 747 748 749 749 749 750 750 750 750 749 749 749 749 749 749 748 747 746 745 745 745 745 744 743 740 738 736 735 732 730 728 725 723 721 719 718 716 713 708
684 683 683 683 684 684 684 684 686 688 689 689 691 692 694 696 699 701 703 705 707 709 712 715 716 716 718 719 721 722 723 725 728 730 732 734 736 738 739 741 742 742 744 745 746 747 748 748 749 750 750 750 750 750 749 749 749 749 749 749 748 747 747 746 746 747 747 746 745 743 741 739 738 736 734 733 731 729 727 725 723 722 721 718 715
683 683 683 683 684 685 685 685 687 689 690 691 691 692 694 696 699 702 705 708 711 713 715 717 719 721 722 723 724 724 725 727 730 732 734 736 738 739 741 742 742 743 745 746 747 748 749 749 750 750 751 750 750 750 749 749 749 749 749 749 748 748 748 748 748 748 748 747 745 744 742 740 739 738 737 735 734 732 730 729 728 727 726 724 722
682 683 683 684 685 686 687 687 688 690 692 693 694 695 697 697 698 702 705 709 713 717 718 719 722 724 726 727 727 727 728 730 732 734 736 738 739 740 742 743 744 745 746 747 748 749 750 750 751 751 751 751 750 750 750 750 749 749 749 749 749 749 749 749 750 749 749 748 747 745 743 742 741 740 739 738 736 735 733 732 731 730 730 729 727
682 682 683 684 685 686 688 689 690 691 693 694 696 698 700 700 701 705 708 710 714 718 719 721 723 726 728 729 729 729 730 733 735 736 737 739 740 742 743 744 745 746 747 748 749 750 751 751 751 751 751 751 750 750 750 750 750 749 749 749 749 750 750 750 751 750 750 749 747 746 744 743 742 742 741 740 739 738 736 735 733 733 733 731 730
682 682 683 685 686 687 689 690 691 692 694 695 697 700 702 702 704 707 710 713 716 718 720 723 725 727 729 730 730 730 732 734 736 738 739 741 742 743 744 746 747 748 749 749 750 751 751 751 751 751 751 751 751 751 751 750 750 750 750 750 750 751 751 751 751 750 750 749 748 747 745 744 743 742 742 741 741 740 738 737 736 735 735 734 732
683 683 684 685 686 688 690 691 692 693 695 696 698 701 703 704 706 709 711 715 717 719 721 724 727 729 730 730 731 732 734 735 737 739 740 742 743 744 745 746 747 748 749 749 750 750 750 750 750 751 751 751 751 751 751 751 751 751 751 751 751 752 752 751 751 750 750 749 748 747 746 745 744 743 742 742 741 740 739 739 738 737 736 736 735
685 686 687 687 688 689 691 692 693 694 696 697 700 702 704 707 710 713 715 717 718 720 723 726 728 730 731 732 733 734 736 737 739 740 741 743 744 745 746 747 747 748 749 749 749 750 750 750 751 751 751 751 751 751 751 750 750 750 751 751 752 751 751 751 750 750 749 748 748 747 747 746 745 744 743 742 741 741 740 739 738 738 737 737 736
688 690 690 691 693 694 695 695 695 695 697 699 702 705 707 710 713 716 718 719 720 722 725 728 730 731 732 734 735 736 737 739 740 741 742 743 744 745 746 747 747 748 749 749 749 750 750 751 751 752 751 751 751 751 750 750 750 751 751 751 751 751 751 750 750 749 749 748 747 747 746 746 745 744 743 742 742 741 740 739 738 738 737 737 737
692 694 694 695 696 698 700 702 701 700 701 703 705 708 710 712 715 718 720 722 723 725 728 730 732 733 734 736 737 738 739 740 741 743 744 745 745 746 747 747 748 748 749 749 749 750 750 751 751 751 751 751 751 750 750 750 750 751 752 752 751 751 750 750 749 749 748 748 747 746 745 745 745 744 743 743 742 741 741 740 739 738 737 737 737
700 700 700 699 699 700 704 706 707 706 706 708 710 711 714 716 718 721 723 724 726 729 731 732 734 735 736 737 739 740 741 742 743 745 746 747 748 748 748 748 748 748 749 749 750 750 751 751 751 750 750 750 750 750 750 751 751 752 752 751 751 751 750 750 749 748 748 747 746 746 745 744 744 743 743 743 742 742 741 741 740 739 738 737 736
711 711 709 705 703 704 707 710 711 711 711 713 714 716 718 720 723 725 727 728 730 732 734 735 736 738 739 740 741 742 744 745 746 748 749 749 750 750 749 749 749 749 750 750 751 751 751 750 750 750 750 750 750 750 750 751 751 751 751 751 750 750 750 749 748 748 747 746 745 745 744 743 743 742 742 742 742 742 741 741 741 740 739 738 737
719 721 719 714 710 708 709 713 716 717 717 718 720 722 724 725 728 730 732 733 734 736 738 739 740 741 742 744 745 746 747 749 750 750 751 751 751 751 751 751 751 751 752 752 752 752 751 751 751 751 751 751 751 750 750 750 751 751 750 750 750 749 749 749 748 747 746 746 745 744 743 743 742 741 741 741 741 741 740 740 740 740 740 739 738